This demonstration page uses our WeatherBlox Daily Observations layout. Learn more.

Left ArrowRight Arrow

41.55636, -103.73856

Hourly Observations for July 1, 2022

Temp ( °F °C ) Dew Point ( °F °C ) Humidity (%) Winds ( mph kmh ) Pressure ( in mb ) Visibility ( mi km ) Precip ( " mm )
12:58 am 00:58 Partly Cloudy 57 14.1 54 12.1 88 88 E 13 20 30.02 1017 10 16 0.00 0.00
1:58 am 01:58 Mostly Cloudy 58 14.3 53 11.4 83 83 E 10 17 30.02 1017 10 16 0.00 0.00
2:58 am 02:58 Clear 56 13.4 53 11.4 88 88 NNW 3 6 30.03 1017 10 16 0.00 0.00
3:58 am 03:58 Clear 55 12.6 51 10.8 89 89 WSW 5 7 30.03 1017 10 16 0.00 0.00
4:58 am 04:58 Clear 53 11.9 51 10.5 91 91 Calm 30.04 1017 10 16 0.00 0.00
5:58 am 05:58 Cloudy 53 11.7 51 10.6 93 93 SW 3 6 30.04 1017 10 16 0.00 0.00
6:58 am 06:58 Mostly Cloudy 56 13.6 54 12 90 90 SW 3 6 30.05 1018 10 16 0.00 0.00
7:58 am 07:58 Mostly Sunny 60 15.6 54 12 79 79 Calm 30.09 1019 10 16 0.00 0.00
8:58 am 08:58 Sunny 64 17.8 54 12 69 69 ESE 8 13 30.09 1019 10 16 0.00 0.00
9:58 am 09:58 Mostly Cloudy 70 21 56 13.2 61 61 SSE 9 15 30.05 1018 10 16 0.00 0.00
10:58 am 10:58 Mostly Cloudy 72 22.1 55 12.9 56 56 SSE 12 19 30.04 1017 10 16 0.00 0.00
11:58 am 11:58 Partly Cloudy 75 23.7 55 12.6 50 50 SE 13 20 30.01 1016 10 16 0.00 0.00
12:58 pm 12:58 Partly Cloudy 77 25.2 54 12.4 45 45 ESE 9 15 29.99 1016 10 16 0.00 0.00
1:58 pm 13:58 Mostly Sunny 81 27 54 12.2 40 40 SSE 15 24 29.96 1015 10 16 0.00 0.00
2:58 pm 14:58 Sunny 82 27.7 51 10.4 34 34 SE 8 13 29.93 1014 10 16 0.00 0.00
3:58 pm 15:58 Sunny 84 28.8 48 9 29 29 ESE 15 24 29.89 1012 10 16 0.00 0.00
4:58 pm 16:58 Sunny 81 27.4 49 9.2 32 32 S 15 24 29.88 1012 10 16 0.00 0.00
5:58 pm 17:58 Mostly Cloudy 80 26.9 49 9.2 33 33 S 16 26 29.89 1012 10 16 0.00 0.00
6:58 pm 18:58 Partly Cloudy 80 26.9 40 4.6 24 24 S 20 31 29.86 1011 10 16 0.00 0.00
7:58 pm 19:58 Cloudy with Light Rain 72 22.3 54 12 52 52 N 12 19 29.93 1014 10 16 0.01 0.25
8:58 pm 20:58 Cloudy with Nearby Thunderstorms 65 18.4 51 10.7 61 61 NE 9 15 29.95 1014 10 16 0.00 0.00
9:58 pm 21:58 Cloudy with Light Rain 62 16.8 57 13.7 82 82 SE 13 20 29.97 1015 10 16 0.02 0.51
10:58 pm 22:58 Cloudy 61 16.1 55 13 82 82 S 8 13 29.93 1014 10 16 0.02 0.51
11:58 pm 23:58 Cloudy 62 16.8 55 12.7 77 77 S 16 26 29.92 1013 10 16 0.00 0.00

Powered by AerisWeather